Location: Buch
(49.7331°N, 12.1098°E)
Time: 21:50:29
(UTC+00:00)

Landsat 7 - Pass Details

Date: 01 October 2021
Orbit: 701 x 703 km, 98.0° (Epoch: 26 October)

Event Time Altitude Azimuth Distance (km) Brightness Sun altitude
Exits shadow 19:33:35 63° 13° (NNE) 790 4.0 -26.4°
Drops below altitude 10° 19:37:40 10° 349° (N) 2,182 6.8 -27.0°
Sets 19:39:56 0° 348° (NNW) 3,104 7.7 -27.3°
